Location: Bacea
(45.9500°N, 22.6667°E)
Time: 01:53:02
(UTC+00:00)

CZ-4 R/B - Pass Details

Date: 16 October 2021
Orbit: 531 x 595 km, 97.8° (Epoch: 02 December)

Event Time Altitude Azimuth Distance (km) Brightness Sun altitude
Rises 18:02:06 0° 196° (SSW) 2,700 4.9 -25.1°
Reaches altitude 10° 18:04:30 10° 210° (SSW) 1,823 4.1 -25.5°
Maximum altitude 18:07:46 25° 266° (W) 1,159 3.6 -26.1°
Drops below altitude 10° 18:11:07 10° 322° (NW) 1,869 4.7 -26.6°
Sets 18:13:36 0° 336° (NNW) 2,784 5.5 -27.0°
